[[{"header":{"parameterUnit":"m.s-1","parameterCategory":1,"la1":30.2991,"la2":30.254,"lo1":-89.0895,"lo2":-89.0444,"dy":0.0017,"dx":0.0017,"nx":28,"ny":28,"refTime":"2025-08-07T03:00:00:Z","depth":0,"parameterNumber":2,"parameterNumberName":"U-component_of_WINDS"},"data":[0,0,0,0,0,0,0,0,0,0,0,0,0,0,0,0,0,0,0,0,0,0,0,0,0,0,0,0,0,0,0,0,0,0,0,0,0,0,0,0,0,0,0,0,0,0,0,0,0,0,0,0,0,0,0,0,0,0,-2.1887,-2.1887,0,-2.1862,-2.1862,-2.1862,-2.1772,-2.177,-2.1768,-2.1766,-2.1742,-2.1744,-2.1745,0,0,0,0,0,0,0,0,0,0,0,0,0,-2.1858,-2.1859,-2.1887,-2.1887,-2.1886,-2.1862,-2.1862,-2.1862,-2.1772,-2.177,-2.1767,-2.1765,-2.1742,-2.1743,-2.1745,0,0,0,0,0,0,0,0,0,0,0,0,0,-2.1856,-2.1859,-2.1887,-2.1839,-2.1834,-2.1862,-2.1862,-2.1862,-2.1773,-2.177,-2.1766,-2.1764,-2.1741,-2.1743,-2.1745,-2.1819,0,0,-2.1751,-2.1752,0,0,0,0,0,0,0,0,-2.1856,-2.1857,-2.1846,-2.1842,-2.1837,-2.1817,-2.1843,-2.1847,-2.1773,-2.1796,-2.1766,-2.1762,-2.177,-2.1769,-2.1771,-2.1818,-2.1817,-2.1751,-2.1752,-2.1753,-2.1754,0,0,0,0,0,0,0,-2.1856,-2.1858,-2.1877,-2.1846,-2.1841,-2.1819,-2.1815,-2.1844,-2.1801,-2.1794,-2.1787,-2.1785,-2.1767,-2.177,-2.177,-2.1816,-2.1751,-2.1753,-2.1754,-2.1755,-2.1921,-2.1924,0,0,0,0,0,0,-2.1863,-2.1858,-2.1878,-2.1876,-2.1839,-2.1822,-2.1818,-2.1827,-2.18,-2.1793,-2.1788,-2.1781,-2.1768,-2.1768,-2.1769,-2.1853,-2.1753,-2.1755,-2.1756,-2.1918,-2.1922,-2.1926,0,0,0,0,0,0,-2.1863,-2.1866,-2.1879,-2.1866,-2.1866,-2.1826,-2.1836,-2.1828,-2.183,-2.1796,-2.1788,-2.1799,-2.1766,-2.1766,-2.1807,-2.1851,-2.1756,-2.1758,-2.1914,-2.1919,-2.1924,-2.2021,0,0,0,0,0,0,-2.1862,-2.1866,-2.1893,-2.1867,-2.1867,-2.1917,-2.1839,-2.1829,-2.1834,-2.1825,-2.1804,-2.1797,-2.1763,-2.1804,-2.1809,-2.1852,-2.1759,-2.191,-2.1916,-2.1922,-2.2014,-2.2029,-2.2042,0,0,0,0,0,-2.1862,-2.1922,-2.1895,-2.1898,-2.19,-2.192,-2.192,-2.1879,-2.1838,-2.1865,-2.1842,-2.1798,-2.1846,-2.1809,-2.1813,-2.1858,-2.1907,-2.1915,-2.1922,-2.2008,-2.2026,-2.2041,0,0,0,0,0,0,-2.1955,-2.1918,-2.1887,-2.1941,-2.1934,-2.1904,-2.1937,-2.1899,-2.1904,-2.1896,-2.1845,-2.1841,-2.1889,-2.1877,-2.1838,-2.1927,-2.1869,-2.1877,-2.1933,-2.195,-2.1963,-2.1965,-2.1761,0,0,0,0,0,-2.1982,-2.2001,-2.1968,-2.2018,-2.2016,-2.1978,-2.1985,-2.1954,-2.1945,-2.1942,-2.1922,-2.1916,-2.1929,-2.1939,-2.1949,-2.2012,-2.2006,-2.2045,-2.2059,-2.207,-2.2078,-2.211,-2.2126,-2.195,-2.195,-2.1949,0,0,-2.2038,-2.202,-2.2035,-2.2037,-2.2028,-2.2049,-2.1976,-2.2001,-2.2016,-2.1946,-2.1982,-2.1968,-2.1958,-2.201,-2.2032,-2.2001,-2.2125,-2.2079,-2.2089,-2.209,-2.2119,-2.2136,-2.2151,-2.1955,-2.1954,-2.1953,0,0,-2.215,-2.2139,-2.2179,-2.2172,-2.2159,-2.2133,-2.2143,-2.2119,-2.2106,-2.2142,-2.2089,-2.2107,-2.2131,-2.2126,-2.2126,-2.2237,-2.2196,-2.2242,-2.2314,-2.2346,-2.236,-2.2372,-2.2411,-2.2425,-2.225,-2.225,-2.225,0,-2.2221,-2.225,-2.2205,-2.2233,-2.2236,-2.2172,-2.2213,-2.2208,-2.22,-2.2203,-2.217,-2.2198,-2.2187,-2.2236,-2.2263,-2.2266,-2.2276,-2.2243,-2.2361,-2.2373,-2.2384,-2.242,-2.2435,-2.2256,-2.2255,-2.2255,-2.2254,0,-2.2338,-2.2359,-2.2393,-2.2386,-2.2392,-2.2427,-2.2387,-2.2399,-2.2368,-2.2346,-2.2384,-2.2368,-2.2374,-2.2383,-2.2353,-2.2429,-2.241,-2.237,-2.231,-2.2407,-2.244,-2.2454,-2.2264,-2.2262,-2.226,-2.2259,0,0,-2.2507,-2.2475,-2.2488,-2.2484,-2.2465,-2.248,-2.2513,-2.2518,-2.2529,-2.2526,-2.2551,-2.2573,-2.2536,-2.2536,-2.2505,-2.2534,-2.2622,-2.2489,-2.2488,-2.2514,-2.2703,-2.2733,-2.275,-2.2595,-2.2597,-2.2599,-2.2704,0,-2.2613,-2.2665,-2.2626,-2.2685,-2.2703,-2.2644,-2.2672,-2.2664,-2.2644,-2.2658,-2.2636,-2.2653,-2.2602,-2.2602,-2.2627,-2.2606,-2.2659,-2.2598,-2.2618,-2.2619,-2.2621,-2.2767,-2.2799,-2.2898,-2.2717,-2.2719,-2.272,0,-2.2743,-2.2745,-2.2806,-2.2783,-2.2789,-2.2815,-2.2816,-2.283,-2.282,-2.2804,-2.2805,-2.2766,-2.2797,-2.2739,-2.278,-2.274,-2.2746,-2.2737,-2.274,-2.2739,-2.2675,-2.277,-2.2929,-2.2943,-2.2741,-2.2739,-2.2738,0,-2.286,-2.2877,-2.2916,-2.2914,-2.2889,-2.2908,-2.2899,-2.2885,-2.2891,-2.2893,-2.2896,-2.2902,-2.2905,-2.291,-2.2875,-2.2836,-2.2921,-2.286,-2.2908,-2.2909,-2.2927,-2.2927,-2.3089,-2.2934,-2.2933,-2.2933,-2.2933,0,-2.2981,-2.3021,-2.2968,-2.2991,-2.3034,-2.2989,-2.3032,-2.3016,-2.3005,-2.3025,-2.2975,-2.2995,-2.2947,-2.2962,-2.2935,-2.2973,-2.2975,-2.2963,-2.2955,-2.2967,-2.2968,-2.297,-2.2961,-2.2937,-2.2936,-2.2935,-2.2935,0,-2.3118,-2.3084,-2.3122,-2.3095,-2.3089,-2.3121,-2.3098,-2.3119,-2.3096,-2.3122,-2.3126,-2.309,-2.3106,-2.3071,-2.3082,-2.3063,-2.3117,-2.3099,-2.3121,-2.3115,-2.3164,-2.316,-2.3332,-2.3352,-2.3185,-2.3187,-2.3188,0,-2.3197,-2.3226,-2.3202,-2.3211,-2.3204,-2.322,-2.3225,-2.3182,-2.319,-2.3181,-2.3203,-2.3214,-2.322,-2.3248,-2.3223,-2.3231,-2.3212,-2.3272,-2.3213,-2.3224,-2.3212,-2.321,-2.3213,-2.3284,-2.3286,-2.3288,-2.3289,0,-2.3341,-2.3323,-2.3332,-2.3335,-2.3343,-2.3344,-2.3341,-2.3352,-2.3306,-2.3318,-2.3332,-2.3337,-2.3348,-2.3359,-2.3362,-2.3353,-2.3314,-2.3308,-2.3319,-2.3331,-2.3342,-2.3336,-2.3153,-2.3304,-2.3302,-2.3301,-2.33,-2.33,-2.345,-2.3473,-2.3459,-2.3471,-2.3465,-2.3463,-2.3481,-2.3461,-2.3472,-2.3477,-2.3451,-2.3472,-2.3461,-2.346,-2.3455,-2.3471,-2.3444,-2.3461,-2.3464,-2.3469,-2.3477,-2.334,-2.3471,-2.3471,-2.347,-2.347,-2.347,0,-2.3591,-2.3579,-2.359,-2.3588,-2.3597,-2.3559,-2.3555,-2.3565,-2.3583,-2.3577,-2.3584,-2.3601,-2.3612,-2.3589,-2.3597,-2.3614,-2.3596,-2.3617,-2.3615,-2.3613,-2.3501,-2.349,-2.3631,-2.3631,-2.3631,-2.3631,-2.3631,-2.3631,-2.3665,-2.37,-2.3681,-2.3713,-2.3701,-2.372,-2.3721,-2.372,-2.3714,-2.3735,-2.3743,-2.3728,-2.3715,-2.3721,-2.373,-2.3723,-2.3728,-2.3755,-2.3742,-2.3637,-2.3621,-2.3606,-2.3595,-2.3757,-2.3757,-2.3852,-2.3853,-2.3854]},{"header":{"parameterUnit":"m.s-1","parameterCategory":1,"la1":30.2991,"la2":30.254,"lo1":-89.0895,"lo2":-89.0444,"dy":0.0017,"dx":0.0017,"nx":28,"ny":28,"refTime":"2025-08-07T03:00:00:Z","depth":0,"parameterNumber":3,"parameterNumberName":"V-component_of_WINDS"},"data":[0,0,0,0,0,0,0,0,0,0,0,0,0,0,0,0,0,0,0,0,0,0,0,0,0,0,0,0,0,0,0,0,0,0,0,0,0,0,0,0,0,0,0,0,0,0,0,0,0,0,0,0,0,0,0,0,0,0,-0.9671,-0.9672,0,-0.9698,-0.9698,-0.9699,-0.9715,-0.9715,-0.9715,-0.9715,-0.9743,-0.9744,-0.9745,0,0,0,0,0,0,0,0,0,0,0,0,0,-0.9635,-0.9635,-0.9671,-0.9672,-0.9672,-0.9698,-0.9698,-0.9699,-0.9715,-0.9715,-0.9715,-0.9715,-0.9743,-0.9744,-0.9745,0,0,0,0,0,0,0,0,0,0,0,0,0,-0.9655,-0.9635,-0.9671,-0.9683,-0.9685,-0.9698,-0.9698,-0.9699,-0.9715,-0.9715,-0.9715,-0.9715,-0.9743,-0.9744,-0.9745,-0.9748,0,0,-0.9748,-0.9748,0,0,0,0,0,0,0,0,-0.9654,-0.9656,-0.9681,-0.9683,-0.9684,-0.9703,-0.9696,-0.9715,-0.9715,-0.9704,-0.9715,-0.9715,-0.973,-0.9732,-0.9737,-0.975,-0.9751,-0.9748,-0.9749,-0.9749,-0.9749,0,0,0,0,0,0,0,-0.9652,-0.9655,-0.9682,-0.9682,-0.9683,-0.9687,-0.969,-0.9699,-0.9716,-0.9705,-0.9706,-0.9709,-0.9731,-0.9736,-0.9738,-0.9751,-0.9748,-0.9749,-0.9749,-0.975,-0.9767,-0.9767,0,0,0,0,0,0,-0.9649,-0.9654,-0.9681,-0.9683,-0.9669,-0.9688,-0.9691,-0.9697,-0.9716,-0.9719,-0.9708,-0.9709,-0.9734,-0.9736,-0.9739,-0.9743,-0.9749,-0.975,-0.975,-0.9767,-0.9767,-0.9766,0,0,0,0,0,0,-0.9648,-0.9651,-0.968,-0.9669,-0.9673,-0.9688,-0.9695,-0.9697,-0.9702,-0.9719,-0.9722,-0.9711,-0.9734,-0.9737,-0.9745,-0.9744,-0.975,-0.9751,-0.9767,-0.9767,-0.9767,-0.9752,0,0,0,0,0,0,-0.9647,-0.9651,-0.9653,-0.9669,-0.9673,-0.9686,-0.9695,-0.9698,-0.9704,-0.9705,-0.9721,-0.9724,-0.9735,-0.9744,-0.9746,-0.9746,-0.9752,-0.9767,-0.9767,-0.9767,-0.9753,-0.9752,-0.9751,0,0,0,0,0,-0.9646,-0.9648,-0.9653,-0.9656,-0.9676,-0.9686,-0.9689,-0.9701,-0.9704,-0.9706,-0.9716,-0.9724,-0.9744,-0.9744,-0.9748,-0.9747,-0.9767,-0.9767,-0.9767,-0.9754,-0.9752,-0.9751,0,0,0,0,0,0,-0.9633,-0.9651,-0.9656,-0.9663,-0.9673,-0.9689,-0.9692,-0.9699,-0.9708,-0.9709,-0.9723,-0.9726,-0.9733,-0.9741,-0.9741,-0.9751,-0.9756,-0.9757,-0.9745,-0.9744,-0.9743,-0.9741,-0.9753,0,0,0,0,0,-0.963,-0.9638,-0.9653,-0.9658,-0.9663,-0.9676,-0.9681,-0.9689,-0.97,-0.9704,-0.9715,-0.9725,-0.9734,-0.9739,-0.9748,-0.9754,-0.9757,-0.9755,-0.9754,-0.9753,-0.9753,-0.9755,-0.9754,-0.9765,-0.9765,-0.9765,0,0,-0.9626,-0.9637,-0.9641,-0.9656,-0.9664,-0.9671,-0.968,-0.9687,-0.9692,-0.9706,-0.9714,-0.9722,-0.9734,-0.9741,-0.9744,-0.9747,-0.975,-0.9752,-0.9751,-0.9752,-0.9755,-0.9754,-0.9753,-0.9765,-0.9765,-0.9765,0,0,-0.9623,-0.9632,-0.9636,-0.9644,-0.9656,-0.9665,-0.9666,-0.9681,-0.9686,-0.9694,-0.9704,-0.971,-0.9725,-0.9733,-0.9739,-0.9735,-0.9743,-0.9738,-0.9732,-0.9734,-0.9733,-0.9732,-0.973,-0.9729,-0.9738,-0.9738,-0.9738,0,-0.9616,-0.9627,-0.9638,-0.9644,-0.965,-0.9661,-0.9666,-0.9673,-0.9688,-0.9691,-0.9695,-0.9712,-0.9721,-0.9729,-0.9728,-0.9733,-0.9734,-0.9737,-0.9732,-0.9731,-0.9731,-0.9729,-0.9729,-0.9737,-0.9737,-0.9737,-0.9737,0,-0.9618,-0.9625,-0.9627,-0.964,-0.9646,-0.9652,-0.9663,-0.9668,-0.9674,-0.9683,-0.969,-0.9701,-0.9711,-0.9714,-0.9721,-0.9722,-0.9724,-0.9729,-0.9735,-0.9729,-0.9728,-0.9727,-0.9736,-0.9736,-0.9737,-0.9737,0,0,-0.9608,-0.9626,-0.9626,-0.9632,-0.9645,-0.9651,-0.9656,-0.9665,-0.9669,-0.9678,-0.9682,-0.9693,-0.9698,-0.9705,-0.9712,-0.9714,-0.971,-0.9719,-0.972,-0.9717,-0.9711,-0.9706,-0.9706,-0.9714,-0.9714,-0.9714,-0.9709,0,-0.9606,-0.9616,-0.9625,-0.9632,-0.9638,-0.9648,-0.9652,-0.9661,-0.9668,-0.9674,-0.9682,-0.9689,-0.9695,-0.9699,-0.9701,-0.971,-0.9709,-0.971,-0.9718,-0.9718,-0.9715,-0.9705,-0.9701,-0.9696,-0.9709,-0.9709,-0.9709,0,-0.9606,-0.9613,-0.962,-0.9631,-0.9634,-0.9638,-0.9647,-0.9652,-0.9661,-0.9666,-0.9673,-0.968,-0.9686,-0.969,-0.9698,-0.9698,-0.9702,-0.9707,-0.9707,-0.9708,-0.9713,-0.9706,-0.9695,-0.9694,-0.9708,-0.9708,-0.9708,0,-0.9597,-0.9609,-0.9614,-0.9619,-0.9632,-0.9634,-0.964,-0.9649,-0.9654,-0.9661,-0.9664,-0.9672,-0.9677,-0.9682,-0.9692,-0.9695,-0.9698,-0.9704,-0.9702,-0.9701,-0.9702,-0.9702,-0.9692,-0.9705,-0.9705,-0.9705,-0.9705,0,-0.9594,-0.9598,-0.9611,-0.9614,-0.9618,-0.9628,-0.9631,-0.9638,-0.9646,-0.965,-0.9659,-0.9663,-0.9675,-0.968,-0.9687,-0.9691,-0.9694,-0.9698,-0.9699,-0.9697,-0.9696,-0.97,-0.97,-0.9705,-0.9705,-0.9705,-0.9705,0,-0.9586,-0.9595,-0.9601,-0.9612,-0.9615,-0.9617,-0.9627,-0.963,-0.9637,-0.9642,-0.9644,-0.9655,-0.9661,-0.9671,-0.968,-0.9685,-0.9688,-0.9691,-0.9685,-0.9686,-0.9683,-0.9683,-0.9675,-0.9674,-0.9687,-0.9687,-0.9687,0,-0.9584,-0.9586,-0.9597,-0.96,-0.9606,-0.9611,-0.9615,-0.9624,-0.9628,-0.9638,-0.964,-0.9646,-0.9652,-0.9662,-0.967,-0.9677,-0.9681,-0.9677,-0.9682,-0.9678,-0.968,-0.968,-0.968,-0.9676,-0.9676,-0.9676,-0.9676,0,-0.9578,-0.9582,-0.9587,-0.9594,-0.9598,-0.9604,-0.9611,-0.9613,-0.9623,-0.9627,-0.9633,-0.9637,-0.9646,-0.9652,-0.966,-0.9666,-0.9672,-0.9674,-0.9674,-0.9671,-0.9667,-0.9669,-0.9681,-0.9674,-0.9674,-0.9674,-0.9675,-0.9675,-0.9573,-0.9575,-0.9583,-0.9588,-0.9593,-0.9598,-0.9601,-0.9608,-0.9613,-0.962,-0.9625,-0.9631,-0.9638,-0.9649,-0.9654,-0.9658,-0.9661,-0.9661,-0.9661,-0.9661,-0.966,-0.9666,-0.966,-0.966,-0.966,-0.966,-0.966,0,-0.9567,-0.9572,-0.9577,-0.9585,-0.9589,-0.9593,-0.96,-0.9603,-0.9607,-0.9614,-0.9619,-0.9625,-0.963,-0.9639,-0.9645,-0.9646,-0.9649,-0.9648,-0.9648,-0.9649,-0.9657,-0.9656,-0.9645,-0.9645,-0.9645,-0.9645,-0.9645,-0.9645,-0.9565,-0.9569,-0.9573,-0.9579,-0.9584,-0.9589,-0.9592,-0.9596,-0.9601,-0.9607,-0.9612,-0.9617,-0.9624,-0.963,-0.9635,-0.9637,-0.9639,-0.9636,-0.9639,-0.9647,-0.9648,-0.965,-0.9649,-0.9636,-0.9636,-0.9631,-0.9631,-0.9631]}]]